Location: Makakahi
(40.6833°S, 175.6000°E)
Time: 23:26:34
(UTC+00:00)

FENGYUN 1C DEB - Pass Details

Date: 06 December 2024
Orbit: 812 x 877 km, 98.8° (Epoch: 19 January)

Event Time Altitude Azimuth Distance (km) Brightness Sun altitude
Rises 08:47:33 0° 163° (SSE) 3,377 ? -11.4°
Reaches altitude 10° 08:49:56 10° 160° (SSE) 2,442 ? -11.7°
Maximum altitude 08:55:18 62° 78° (ENE) 932 ? -12.4°
Drops below altitude 10° 09:00:39 10° 357° (N) 2,443 ? -13.1°
Enters shadow 09:01:42 - 356° (N) 2,851 ? -13.3°
